This is the latest recevied weather packets stored in our database for station/object K4CRS-13. If no packets are shown the sender has not sent any weather packets the latest 10 day(s).
| Time | Temp. | Humidity | Pressure | Rain* | Wind** | Luminosity | Snow |
|---|---|---|---|---|---|---|---|
| 1778004222 | 20.56° C | 71% | 1047.9 hPa | 0 mm | - | 223 W/m² | - |
| 1778003918 | 20.56° C | 68% | 1047.9 hPa | 0 mm | - | 221 W/m² | - |
| 1778003614 | 21.11° C | 66% | 1047.7 hPa | 0 mm | - | 101 W/m² | - |
| 1778003311 | 21.67° C | 66% | 1048.4 hPa | 0 mm | - | 109 W/m² | - |
| 1778003009 | 22.22° C | 63% | 1048.6 hPa | 0 mm | - | 118 W/m² | - |
| 1778002704 | 22.22° C | 64% | 1049 hPa | 0 mm | - | 190 W/m² | - |
| 1778002401 | 22.78° C | 61% | 1048.8 hPa | 0 mm | - | 315 W/m² | - |
| 1778002099 | 23.33° C | 60% | 1048.8 hPa | 0 mm | - | 323 W/m² | - |
| 1778001796 | 23.89° C | 56% | 1048.8 hPa | 0 mm | - | 326 W/m² | - |
| 1778001495 | 24.44° C | 56% | 1048.9 hPa | 0 mm | - | 512 W/m² | - |
| 1778001193 | 23.89° C | 60% | 1048.7 hPa | 0 mm | - | 961 W/m² | - |
| 1778000889 | 23.33° C | 58% | 1048.7 hPa | 0 mm | - | 830 W/m² | - |
| 1778000586 | 22.78° C | 62% | 1048.7 hPa | 0 mm | - | 700 W/m² | - |
| 1778000281 | 22.22° C | 62% | 1048.9 hPa | 0 mm | - | 591 W/m² | - |
| 1777999977 | 21.67° C | 62% | 1048.7 hPa | 0 mm | - | 368 W/m² | - |
| 1777999673 | 21.67° C | 61% | 1048.8 hPa | 0 mm | - | 307 W/m² | - |
| 1777999371 | 21.67° C | 60% | 1048.8 hPa | 0 mm | - | 290 W/m² | - |
| 1777999069 | 21.67° C | 57% | 1048.9 hPa | 0 mm | - | 315 W/m² | - |
| 1777998767 | 22.22° C | 57% | 1048.9 hPa | 0 mm | - | 345 W/m² | - |
| 1777998464 | 22.78° C | 58% | 1049.1 hPa | 0 mm | - | 372 W/m² | - |
| 1777998161 | 23.33° C | 59% | 1048.9 hPa | 0 mm | - | 443 W/m² | - |
| 1777997857 | 23.33° C | 59% | 1049.1 hPa | 0 mm | - | 399 W/m² | - |
| 1777997556 | 23.33° C | 61% | 1049 hPa | 0 mm | - | 428 W/m² | - |
| 1777997253 | 22.78° C | 60% | 1048.9 hPa | 0 mm | - | 578 W/m² | - |
| 1777996950 | 23.33° C | 58% | 1048.6 hPa | 0 mm | - | 574 W/m² | - |
* Rain latest hour (hover to see other rain measurements)
** Current wind speed in m/s (hover to see current wind gust speed)